Time,TemperatureF,DewpointF,PressureIn,WindDirection,WindDirectionDegrees,WindSpeedMPH,WindSpeedGustMPH,Humidity,HourlyPrecipIn,Conditions,Clouds,dailyrainin,SoftwareType,DateUTC
2013-03-12 00:02:00,27.1,21.5,29.74,North,0,3.3,5.8,79,0.00,RA,,0.00,WeatherDisplay:10.37,2013-03-12 05:02:00,
2013-03-12 00:07:00,27.1,21.5,29.74,North,0,2.9,3.5,79,0.00,RA,,0.00,WeatherDisplay:10.37,2013-03-12 05:07:00,
2013-03-12 00:12:00,27.1,21.5,29.71,North,0,3.8,5.8,79,0.00,CLR,,0.00,WeatherDisplay:10.37,2013-03-12 05:12:00,
2013-03-12 00:17:00,27.0,21.3,29.71,North,0,2.2,2.6,79,0.00,CLR,,0.00,WeatherDisplay:10.37,2013-03-12 05:17:00,
2013-03-12 00:22:00,27.0,21.6,29.71,North,0,2.4,4.6,80,0.00,CLR,,0.00,WeatherDisplay:10.37,2013-03-12 05:22:00,
2013-03-12 00:27:00,27.0,21.6,29.74,North,0,2.6,5.8,80,0.00,CLR,,0.00,WeatherDisplay:10.37,2013-03-12 05:27:00,
2013-03-12 00:32:00,27.0,21.3,29.74,North,0,3.8,4.6,79,0.00,CLR,,0.00,WeatherDisplay:10.37,2013-03-12 05:32:00,
2013-03-12 00:37:00,27.0,21.3,29.74,North,0,3.6,4.6,79,0.00,CLR,,0.00,WeatherDisplay:10.37,2013-03-12 05:37:00,
2013-03-12 00:42:00,27.0,21.0,29.74,North,0,2.9,3.5,78,0.00,CLR,,0.00,WeatherDisplay:10.37,2013-03-12 05:42:00,
2013-03-12 00:47:00,27.0,21.3,29.74,North,0,2.6,3.5,79,0.00,CLR,,0.00,WeatherDisplay:10.37,2013-03-12 05:47:00,
2013-03-12 00:52:00,27.0,21.3,29.74,North,0,3.1,3.6,79,0.00,CLR,,0.00,WeatherDisplay:10.37,2013-03-12 05:52:00,
2013-03-12 00:57:00,27.0,21.3,29.77,North,0,2.2,2.3,79,0.00,CLR,,0.00,WeatherDisplay:10.37,2013-03-12 05:57:00,
2013-03-12 01:02:00,27.0,21.6,29.77,North,0,4.5,4.6,80,0.00,CLR,,0.00,WeatherDisplay:10.37,2013-03-12 06:02:00,
2013-03-12 01:07:00,27.0,21.9,29.77,North,0,2.6,3.5,81,0.00,CLR,,0.00,WeatherDisplay:10.37,2013-03-12 06:07:00,
2013-03-12 01:12:00,27.0,21.9,29.74,North,0,2.2,4.6,81,0.00,CLR,,0.00,WeatherDisplay:10.37,2013-03-12 06:12:00,
2013-03-12 01:17:00,27.0,22.2,29.74,North,0,2.0,2.3,82,0.00,CLR,,0.00,WeatherDisplay:10.37,2013-03-12 06:17:00,
2013-03-12 01:22:00,27.0,22.2,29.74,North,0,1.1,4.9,82,0.00,CLR,,0.00,WeatherDisplay:10.37,2013-03-12 06:22:00,
2013-03-12 01:27:00,27.0,22.5,29.74,North,0,2.2,2.6,83,0.00,CLR,,0.00,WeatherDisplay:10.37,2013-03-12 06:27:00,
2013-03-12 01:32:00,27.0,22.8,29.74,North,0,2.6,4.6,84,0.00,CLR,,0.00,WeatherDisplay:10.37,2013-03-12 06:32:00,
2013-03-12 01:37:00,27.0,23.1,29.74,North,0,2.2,2.3,85,0.00,CLR,,0.00,WeatherDisplay:10.37,2013-03-12 06:37:00,
2013-03-12 01:42:00,26.8,22.9,29.77,North,0,1.6,3.5,85,0.00,CLR,,0.00,WeatherDisplay:10.37,2013-03-12 06:42:00,
2013-03-12 01:47:00,26.8,22.9,29.77,North,0,2.9,4.6,85,0.00,CLR,,0.00,WeatherDisplay:10.37,2013-03-12 06:47:00,
2013-03-12 01:52:00,26.8,23.2,29.77,North,0,2.0,2.3,86,0.00,CLR,,0.00,WeatherDisplay:10.37,2013-03-12 06:52:00,
2013-03-12 01:57:00,26.8,23.4,29.77,North,0,2.6,3.8,87,0.00,CLR,,0.00,WeatherDisplay:10.37,2013-03-12 06:57:00,
2013-03-12 02:02:00,26.8,23.4,29.77,North,0,2.4,3.5,87,0.00,CLR,,0.00,WeatherDisplay:10.37,2013-03-12 07:02:00,
2013-03-12 02:08:00,26.6,23.3,29.77,North,0,2.9,4.6,87,0.00,CLR,,0.00,WeatherDisplay:10.37,2013-03-12 07:08:00,
2013-03-12 02:13:00,26.6,23.3,29.77,North,0,2.2,3.5,87,0.00,CLR,,0.00,WeatherDisplay:10.37,2013-03-12 07:13:00,
2013-03-12 02:18:00,26.4,23.1,29.77,North,0,2.6,2.6,87,0.00,CLR,,0.00,WeatherDisplay:10.37,2013-03-12 07:18:00,
2013-03-12 02:23:00,26.4,22.8,29.77,North,0,0.9,3.5,86,0.00,CLR,,0.00,WeatherDisplay:10.37,2013-03-12 07:23:00,
2013-03-12 02:28:00,26.4,22.8,29.77,North,0,2.0,2.3,86,0.00,CLR,,0.00,WeatherDisplay:10.37,2013-03-12 07:28:00,
2013-03-12 02:33:00,26.4,22.8,29.77,North,0,2.0,4.3,86,0.00,CLR,,0.00,WeatherDisplay:10.37,2013-03-12 07:33:00,
2013-03-12 02:38:00,26.4,22.8,29.77,North,0,1.4,3.6,86,0.00,CLR,,0.00,WeatherDisplay:10.37,2013-03-12 07:38:00,
2013-03-12 02:43:00,26.4,23.1,29.77,North,0,1.6,2.4,87,0.00,CLR,,0.00,WeatherDisplay:10.37,2013-03-12 07:43:00,
2013-03-12 02:48:00,26.4,23.3,29.77,North,0,2.0,4.6,88,0.00,CLR,,0.00,WeatherDisplay:10.37,2013-03-12 07:48:00,
2013-03-12 02:53:00,26.4,23.3,29.77,North,0,3.6,5.8,88,0.00,CLR,,0.00,WeatherDisplay:10.37,2013-03-12 07:53:00,
2013-03-12 02:58:00,26.4,23.3,29.77,North,0,1.0,6.0,88,0.00,CLR,,0.00,WeatherDisplay:10.37,2013-03-12 07:58:00,
2013-03-12 03:03:00,26.4,23.1,29.77,North,0,2.0,5.0,87,0.00,CLR,,0.00,WeatherDisplay:10.37,2013-03-12 08:03:00,
2013-03-12 03:08:00,26.2,22.6,29.77,North,0,2.9,3.5,86,0.00,CLR,,0.00,WeatherDisplay:10.37,2013-03-12 08:08:00,
2013-03-12 03:13:00,26.2,22.6,29.77,North,0,2.0,6.0,86,0.00,CLR,,0.00,WeatherDisplay:10.37,2013-03-12 08:13:00,
2013-03-12 03:18:00,26.1,22.2,29.77,North,0,3.0,8.0,85,0.00,CLR,,0.00,WeatherDisplay:10.37,2013-03-12 08:18:00,
2013-03-12 03:23:00,26.1,21.9,29.77,North,0,2.9,4.6,84,0.00,CLR,,0.00,WeatherDisplay:10.37,2013-03-12 08:23:00,
2013-03-12 03:28:00,25.9,21.7,29.77,North,0,3.0,6.0,84,0.00,CLR,,0.00,WeatherDisplay:10.37,2013-03-12 08:28:00,
2013-03-12 03:33:00,25.9,21.7,29.77,North,0,3.0,6.0,84,0.00,CLR,,0.00,WeatherDisplay:10.37,2013-03-12 08:33:00,
2013-03-12 03:38:00,25.9,21.7,29.77,North,0,3.1,8.1,84,0.00,CLR,,0.00,WeatherDisplay:10.37,2013-03-12 08:38:00,
2013-03-12 03:43:00,25.9,21.4,29.77,North,0,2.6,3.5,83,0.00,CLR,,0.00,WeatherDisplay:10.37,2013-03-12 08:43:00,
2013-03-12 03:48:00,25.7,21.0,29.77,North,0,4.0,4.6,82,0.00,CLR,,0.00,WeatherDisplay:10.37,2013-03-12 08:48:00,
2013-03-12 03:53:00,25.7,20.7,29.77,North,0,2.9,4.6,81,0.00,CLR,,0.00,WeatherDisplay:10.37,2013-03-12 08:53:00,
2013-03-12 03:58:00,25.7,20.7,29.77,North,0,4.0,4.0,81,0.00,CLR,,0.00,WeatherDisplay:10.37,2013-03-12 08:58:00,
2013-03-12 04:03:00,25.7,20.7,29.77,North,0,2.9,3.5,81,0.00,CLR,,0.00,WeatherDisplay:10.37,2013-03-12 09:03:00,
2013-03-12 04:08:00,25.7,20.4,29.77,North,0,1.1,2.3,80,0.00,CLR,,0.00,WeatherDisplay:10.37,2013-03-12 09:08:00,
2013-03-12 04:13:00,25.5,19.9,29.77,North,0,4.3,5.8,79,0.00,CLR,,0.00,WeatherDisplay:10.37,2013-03-12 09:13:00,
2013-03-12 04:18:00,25.5,19.9,29.77,North,0,4.3,5.8,79,0.00,CLR,,0.00,WeatherDisplay:10.37,2013-03-12 09:18:00,
2013-03-12 04:23:00,25.5,19.9,29.77,North,0,3.8,4.6,79,0.00,CLR,,0.00,WeatherDisplay:10.37,2013-03-12 09:23:00,
2013-03-12 04:28:00,25.3,19.7,29.77,North,0,4.5,5.8,79,0.00,CLR,,0.00,WeatherDisplay:10.37,2013-03-12 09:28:00,
2013-03-12 04:33:00,25.3,19.4,29.77,North,0,4.0,6.2,78,0.00,CLR,,0.00,WeatherDisplay:10.37,2013-03-12 09:33:00,
2013-03-12 04:38:00,25.2,19.0,29.77,North,0,4.0,5.8,77,0.00,CLR,,0.00,WeatherDisplay:10.37,2013-03-12 09:38:00,
2013-03-12 04:43:00,25.2,19.3,29.77,North,0,3.6,5.8,78,0.00,CLR,,0.00,WeatherDisplay:10.37,2013-03-12 09:43:00,
2013-03-12 04:48:00,25.0,19.1,29.77,North,0,4.3,4.6,78,0.00,CLR,,0.00,WeatherDisplay:10.37,2013-03-12 09:48:00,
2013-03-12 04:53:00,25.0,19.4,29.77,North,0,1.6,3.5,79,0.00,CLR,,0.00,WeatherDisplay:10.37,2013-03-12 09:53:00,
2013-03-12 04:58:00,25.2,19.6,29.77,North,0,2.4,3.5,79,0.00,CLR,,0.00,WeatherDisplay:10.37,2013-03-12 09:58:00,
2013-03-12 05:03:00,25.0,19.7,29.77,North,0,2.0,5.8,80,0.00,CLR,,0.00,WeatherDisplay:10.37,2013-03-12 10:03:00,
2013-03-12 05:08:00,25.0,19.7,29.77,North,0,3.3,6.9,80,0.00,CLR,,0.00,WeatherDisplay:10.37,2013-03-12 10:08:00,
2013-03-12 05:13:00,24.8,19.8,29.77,North,0,3.3,5.8,81,0.00,CLR,,0.00,WeatherDisplay:10.37,2013-03-12 10:13:00,
2013-03-12 05:18:00,24.6,19.3,29.77,North,0,2.4,2.4,80,0.00,CLR,,0.00,WeatherDisplay:10.37,2013-03-12 10:18:00,
2013-03-12 05:23:00,24.6,19.3,29.77,North,0,1.4,3.1,80,0.00,CLR,,0.00,WeatherDisplay:10.37,2013-03-12 10:23:00,
2013-03-12 05:28:00,24.4,19.2,29.77,North,0,2.4,4.6,80,0.00,CLR,,0.00,WeatherDisplay:10.37,2013-03-12 10:28:00,
2013-03-12 05:33:00,24.4,19.2,29.77,North,0,5.6,5.8,80,0.00,CLR,,0.00,WeatherDisplay:10.37,2013-03-12 10:33:00,
2013-03-12 05:38:00,24.3,18.7,29.77,North,0,3.6,5.8,79,0.00,CLR,,0.00,WeatherDisplay:10.37,2013-03-12 10:38:00,
2013-03-12 05:43:00,24.1,18.8,29.80,North,0,4.3,5.8,80,0.00,CLR,,0.00,WeatherDisplay:10.37,2013-03-12 10:43:00,
2013-03-12 05:48:00,23.9,18.6,29.80,North,0,2.0,3.5,80,0.00,CLR,,0.00,WeatherDisplay:10.37,2013-03-12 10:48:00,
2013-03-12 05:53:00,23.7,18.5,29.80,North,0,3.1,5.8,80,0.00,CLR,,0.00,WeatherDisplay:10.37,2013-03-12 10:53:00,
2013-03-12 05:58:00,23.4,17.8,29.80,North,0,1.4,2.3,79,0.00,CLR,,0.00,WeatherDisplay:10.37,2013-03-12 10:58:00,
2013-03-12 06:03:00,23.2,17.9,29.80,North,0,3.1,6.9,80,0.00,CLR,,0.00,WeatherDisplay:10.37,2013-03-12 11:03:00,
2013-03-12 06:08:00,23.0,17.7,29.80,North,0,0.9,3.1,80,0.00,CLR,,0.00,WeatherDisplay:10.37,2013-03-12 11:08:00,
2013-03-12 06:13:00,22.6,17.4,29.80,North,0,1.6,3.5,80,0.00,CLR,,0.00,WeatherDisplay:10.37,2013-03-12 11:13:00,
2013-03-12 06:18:00,22.3,17.0,29.80,North,0,2.4,4.6,80,0.00,CLR,,0.00,WeatherDisplay:10.37,2013-03-12 11:18:00,
2013-03-12 06:23:00,22.1,17.2,29.80,North,0,1.4,2.3,81,0.00,CLR,,0.00,WeatherDisplay:10.37,2013-03-12 11:23:00,
2013-03-12 06:28:00,22.3,17.3,29.80,North,0,0.0,1.6,81,0.00,CLR,,0.00,WeatherDisplay:10.37,2013-03-12 11:28:00,
2013-03-12 06:33:00,22.3,17.6,29.80,North,0,0.9,1.6,82,0.00,CLR,,0.00,WeatherDisplay:10.37,2013-03-12 11:33:00,
2013-03-12 06:38:00,22.1,17.4,29.80,North,0,1.6,2.4,82,0.00,CLR,,0.00,WeatherDisplay:10.37,2013-03-12 11:38:00,
2013-03-12 06:43:00,21.9,17.3,29.77,North,0,2.2,3.5,82,0.00,CLR,,0.00,WeatherDisplay:10.37,2013-03-12 11:43:00,
2013-03-12 06:48:00,21.9,17.3,29.77,North,0,1.4,2.3,82,0.00,CLR,,0.00,WeatherDisplay:10.37,2013-03-12 11:48:00,
2013-03-12 06:53:00,21.7,17.1,29.77,North,0,4.7,8.1,82,0.00,CLR,,0.00,WeatherDisplay:10.37,2013-03-12 11:53:00,
2013-03-12 06:58:00,21.7,16.8,29.80,North,0,3.6,5.8,81,0.00,CLR,,0.00,WeatherDisplay:10.37,2013-03-12 11:58:00,
2013-03-12 07:03:00,21.7,16.8,29.80,North,0,2.4,3.5,81,0.00,CLR,,0.00,WeatherDisplay:10.37,2013-03-12 12:03:00,
2013-03-12 07:08:00,21.7,16.8,29.80,North,0,1.1,2.3,81,0.00,CLR,,0.00,WeatherDisplay:10.37,2013-03-12 12:08:00,
2013-03-12 07:13:00,21.6,16.6,29.80,North,0,2.6,3.5,81,0.00,CLR,,0.00,WeatherDisplay:10.37,2013-03-12 12:13:00,
2013-03-12 07:18:00,21.6,16.6,29.80,North,0,3.3,3.5,81,0.00,CLR,,0.00,WeatherDisplay:10.37,2013-03-12 12:18:00,
2013-03-12 07:23:00,21.6,16.6,29.80,North,0,1.6,2.3,81,0.00,CLR,,0.00,WeatherDisplay:10.37,2013-03-12 12:23:00,
2013-03-12 07:28:00,21.6,16.6,29.80,North,0,0.0,0.0,81,0.00,CLR,,0.00,WeatherDisplay:10.37,2013-03-12 12:28:00,
2013-03-12 07:33:00,21.6,16.6,29.80,North,0,4.7,5.8,81,0.00,CLR,,0.00,WeatherDisplay:10.37,2013-03-12 12:33:00,
2013-03-12 07:38:00,21.7,16.8,29.80,North,0,2.2,2.3,81,0.00,CLR,,0.00,WeatherDisplay:10.37,2013-03-12 12:38:00,
2013-03-12 07:43:00,21.9,17.0,29.77,North,0,2.0,3.6,81,0.00,CLR,,0.00,WeatherDisplay:10.37,2013-03-12 12:43:00,
2013-03-12 07:48:00,21.9,17.0,29.77,North,0,1.1,1.6,81,0.00,CLR,,0.00,WeatherDisplay:10.37,2013-03-12 12:48:00,
2013-03-12 07:53:00,22.3,17.3,29.77,North,0,1.6,2.6,81,0.00,CLR,,0.00,WeatherDisplay:10.37,2013-03-12 12:53:00,
2013-03-12 07:58:00,22.3,17.0,29.80,North,0,2.4,3.5,80,0.00,CLR,,0.00,WeatherDisplay:10.37,2013-03-12 12:58:00,
2013-03-12 08:03:00,22.6,17.1,29.80,North,0,2.6,4.6,79,0.00,CLR,,0.00,WeatherDisplay:10.37,2013-03-12 13:03:00,
2013-03-12 08:08:00,23.0,17.5,29.80,North,0,2.9,3.5,79,0.00,CLR,,0.00,WeatherDisplay:10.37,2013-03-12 13:08:00,
2013-03-12 08:13:00,23.4,17.5,29.80,North,0,2.0,2.4,78,0.00,CLR,,0.00,WeatherDisplay:10.37,2013-03-12 13:13:00,
2013-03-12 08:18:00,23.5,17.4,29.80,North,0,2.9,4.6,77,0.00,CLR,,0.00,WeatherDisplay:10.37,2013-03-12 13:18:00,
2013-03-12 08:23:00,23.7,16.6,29.80,North,0,2.0,5.8,74,0.00,CLR,,0.00,WeatherDisplay:10.37,2013-03-12 13:23:00,
2013-03-12 08:28:00,23.9,16.8,29.80,North,0,2.0,4.0,74,0.00,CLR,,0.00,WeatherDisplay:10.37,2013-03-12 13:28:00,
2013-03-12 08:33:00,23.9,16.2,29.80,North,0,2.4,3.5,72,0.00,CLR,,0.00,WeatherDisplay:10.37,2013-03-12 13:33:00,
2013-03-12 08:38:00,23.9,15.5,29.80,North,0,4.9,6.9,70,0.00,CLR,,0.00,WeatherDisplay:10.37,2013-03-12 13:38:00,
2013-03-12 08:43:00,24.3,15.9,29.83,North,0,2.0,6.9,70,0.00,CLR,,0.00,WeatherDisplay:10.37,2013-03-12 13:43:00,
2013-03-12 08:48:00,24.6,16.2,29.83,North,0,3.3,4.6,70,0.00,CLR,,0.00,WeatherDisplay:10.37,2013-03-12 13:48:00,
2013-03-12 08:53:00,25.0,16.6,29.83,North,0,1.6,3.8,70,0.00,CLR,,0.00,WeatherDisplay:10.37,2013-03-12 13:53:00,
2013-03-12 08:58:00,25.3,16.2,29.83,North,0,2.6,3.5,68,0.00,CLR,,0.00,WeatherDisplay:10.37,2013-03-12 13:58:00,
2013-03-12 09:03:00,25.7,16.3,29.83,North,0,2.4,4.6,67,0.00,CLR,,0.00,WeatherDisplay:10.37,2013-03-12 14:03:00,
2013-03-12 09:08:00,26.4,16.9,29.83,North,0,1.6,3.5,67,0.00,CLR,,0.00,WeatherDisplay:10.37,2013-03-12 14:08:00,
2013-03-12 09:13:00,26.4,15.5,29.83,North,0,2.4,2.4,63,0.00,CLR,,0.00,WeatherDisplay:10.37,2013-03-12 14:13:00,
2013-03-12 09:18:00,26.8,15.1,29.83,North,0,2.9,3.5,61,0.00,CLR,,0.00,WeatherDisplay:10.37,2013-03-12 14:18:00,
2013-03-12 09:23:00,27.1,15.1,29.83,North,0,2.4,4.6,60,0.00,CLR,,0.00,WeatherDisplay:10.37,2013-03-12 14:23:00,
2013-03-12 09:28:00,27.9,15.8,29.83,North,0,3.3,3.5,60,0.00,CLR,,0.00,WeatherDisplay:10.37,2013-03-12 14:28:00,
2013-03-12 09:34:00,28.2,15.3,29.83,North,0,3.1,5.4,58,0.00,CLR,,0.00,WeatherDisplay:10.37,2013-03-12 14:34:00,
2013-03-12 09:39:00,29.5,16.1,29.83,North,0,2.6,3.6,57,0.00,CLR,,0.00,WeatherDisplay:10.37,2013-03-12 14:39:00,
2013-03-12 09:44:00,29.5,15.3,29.83,North,0,3.1,5.8,55,0.00,CLR,,0.00,WeatherDisplay:10.37,2013-03-12 14:44:00,
2013-03-12 09:49:00,29.8,15.6,29.83,North,0,2.9,4.6,55,0.00,CLR,,0.00,WeatherDisplay:10.37,2013-03-12 14:49:00,
2013-03-12 09:54:00,29.7,15.0,29.83,North,0,2.9,5.8,54,0.00,CLR,,0.00,WeatherDisplay:10.37,2013-03-12 14:54:00,
2013-03-12 09:59:00,31.1,16.8,29.83,North,0,1.1,4.0,55,0.00,CLR,,0.00,WeatherDisplay:10.37,2013-03-12 14:59:00,
2013-03-12 10:04:00,31.5,16.3,29.83,North,0,3.3,4.6,53,0.00,CLR,,0.00,WeatherDisplay:10.37,2013-03-12 15:04:00,
2013-03-12 10:09:00,33.1,17.8,29.83,North,0,1.6,5.4,53,0.00,CLR,,0.00,WeatherDisplay:10.37,2013-03-12 15:09:00,
2013-03-12 10:14:00,33.6,16.9,29.83,North,0,2.9,6.9,50,0.00,CLR,,0.00,WeatherDisplay:10.37,2013-03-12 15:14:00,
2013-03-12 10:19:00,33.6,16.5,29.83,North,0,3.6,5.8,49,0.00,CLR,,0.00,WeatherDisplay:10.37,2013-03-12 15:19:00,
2013-03-12 10:24:00,36.3,19.4,29.83,North,0,1.6,2.3,50,0.00,CLR,,0.00,WeatherDisplay:10.37,2013-03-12 15:24:00,
2013-03-12 10:29:00,35.6,17.3,29.83,North,0,3.6,4.6,47,0.00,CLR,,0.00,WeatherDisplay:10.37,2013-03-12 15:29:00,
2013-03-12 10:34:00,35.2,16.5,29.83,North,0,4.5,4.6,46,0.00,CLR,,0.00,WeatherDisplay:10.37,2013-03-12 15:34:00,
2013-03-12 10:39:00,35.1,16.3,29.83,North,0,2.6,4.6,46,0.00,CLR,,0.00,WeatherDisplay:10.37,2013-03-12 15:39:00,
2013-03-12 10:44:00,38.1,19.6,29.83,North,0,2.4,3.5,47,0.00,CLR,,0.00,WeatherDisplay:10.37,2013-03-12 15:44:00,
2013-03-12 10:49:00,38.8,19.3,29.83,North,0,4.0,6.0,45,0.00,CLR,,0.00,WeatherDisplay:10.37,2013-03-12 15:49:00,
2013-03-12 10:54:00,37.8,17.2,29.83,North,0,4.0,4.6,43,0.00,CLR,,0.00,WeatherDisplay:10.37,2013-03-12 15:54:00,
2013-03-12 10:59:00,38.1,17.6,29.83,North,0,5.9,5.9,43,0.00,CLR,,0.00,WeatherDisplay:10.37,2013-03-12 15:59:00,
2013-03-12 11:04:00,39.2,18.0,29.83,North,0,3.6,4.6,42,0.00,CLR,,0.00,WeatherDisplay:10.37,2013-03-12 16:04:00,
2013-03-12 11:09:00,39.9,18.1,29.83,North,0,4.9,9.2,41,0.00,CLR,,0.00,WeatherDisplay:10.37,2013-03-12 16:09:00,
2013-03-12 11:14:00,40.6,18.7,29.83,North,0,2.2,3.5,41,0.00,CLR,,0.00,WeatherDisplay:10.37,2013-03-12 16:14:00,
2013-03-12 11:19:00,39.4,17.6,29.83,North,0,4.0,6.9,41,0.00,CLR,,0.00,WeatherDisplay:10.37,2013-03-12 16:19:00,
2013-03-12 11:24:00,37.2,16.2,29.83,North,0,4.3,4.6,42,0.00,CLR,,0.00,WeatherDisplay:10.37,2013-03-12 16:24:00,
2013-03-12 11:29:00,36.7,16.3,29.83,North,0,4.5,5.8,43,0.00,CLR,,0.00,WeatherDisplay:10.37,2013-03-12 16:29:00,
2013-03-12 11:34:00,38.8,18.2,29.83,North,0,3.1,4.7,43,0.00,CLR,,0.00,WeatherDisplay:10.37,2013-03-12 16:34:00,
2013-03-12 11:39:00,39.2,18.0,29.83,North,0,5.4,5.8,42,0.00,CLR,,0.00,WeatherDisplay:10.37,2013-03-12 16:39:00,
2013-03-12 11:44:00,37.9,16.9,29.83,North,0,4.0,5.8,42,0.00,CLR,,0.00,WeatherDisplay:10.37,2013-03-12 16:44:00,
2013-03-12 11:49:00,38.1,17.0,29.83,North,0,2.6,4.6,42,0.00,CLR,,0.00,WeatherDisplay:10.37,2013-03-12 16:49:00,
2013-03-12 11:54:00,38.5,17.3,29.83,North,0,4.0,6.9,42,0.00,CLR,,0.00,WeatherDisplay:10.37,2013-03-12 16:54:00,
2013-03-12 11:59:00,37.2,16.7,29.83,North,0,4.9,6.9,43,0.00,CLR,,0.00,WeatherDisplay:10.37,2013-03-12 16:59:00,
2013-03-12 12:04:00,38.5,17.9,29.83,North,0,2.4,3.5,43,0.00,CLR,,0.00,WeatherDisplay:10.37,2013-03-12 17:04:00,
2013-03-12 12:09:00,40.5,18.6,29.83,North,0,3.8,4.6,41,0.00,CLR,,0.00,WeatherDisplay:10.37,2013-03-12 17:09:00,
2013-03-12 12:14:00,40.6,18.2,29.83,North,0,4.7,6.2,40,0.00,CLR,,0.00,WeatherDisplay:10.37,2013-03-12 17:14:00,
2013-03-12 12:19:00,37.8,16.1,29.83,North,0,2.9,5.8,41,0.00,CLR,,0.00,WeatherDisplay:10.37,2013-03-12 17:19:00,
2013-03-12 12:24:00,35.8,14.9,29.83,NNW,338,5.4,5.8,42,0.00,CLR,,0.00,WeatherDisplay:10.37,2013-03-12 17:24:00,
2013-03-12 12:29:00,33.8,14.2,29.80,NNW,338,4.9,6.9,44,0.00,CLR,,0.00,WeatherDisplay:10.37,2013-03-12 17:29:00,
2013-03-12 12:34:00,32.5,14.0,29.80,NNW,338,4.9,6.9,46,0.00,CLR,,0.00,WeatherDisplay:10.37,2013-03-12 17:34:00,
2013-03-12 12:39:00,32.4,14.8,29.80,NNW,338,4.3,5.8,48,0.00,CLR,,0.00,WeatherDisplay:10.37,2013-03-12 17:39:00,
2013-03-12 12:44:00,31.5,14.0,29.83,NW,315,6.7,9.2,48,0.00,CLR,,0.00,WeatherDisplay:10.37,2013-03-12 17:44:00,
2013-03-12 12:49:00,31.8,15.3,29.83,NNW,338,4.7,6.9,50,0.00,CLR,,0.00,WeatherDisplay:10.37,2013-03-12 17:49:00,
2013-03-12 12:54:00,32.7,16.6,29.83,WNW,292,3.8,6.9,51,0.00,CLR,,0.00,WeatherDisplay:10.37,2013-03-12 17:54:00,
2013-03-12 12:59:00,32.5,15.9,29.83,North,0,4.5,4.6,50,0.00,CLR,,0.00,WeatherDisplay:10.37,2013-03-12 17:59:00,
2013-03-12 13:04:00,32.0,15.0,29.83,NW,315,7.4,10.4,49,0.00,CLR,,0.00,WeatherDisplay:10.37,2013-03-12 18:04:00,
2013-03-12 13:09:00,33.1,16.4,29.83,NW,315,3.1,4.6,50,0.00,CLR,,0.00,WeatherDisplay:10.37,2013-03-12 18:09:00,
2013-03-12 13:14:00,33.4,16.8,29.83,WNW,292,3.6,3.6,50,0.00,CLR,,0.00,WeatherDisplay:10.37,2013-03-12 18:14:00,
2013-03-12 13:19:00,34.9,16.7,29.83,NW,315,3.6,6.0,47,0.00,CLR,,0.00,WeatherDisplay:10.37,2013-03-12 18:19:00,
2013-03-12 13:24:00,34.7,15.5,29.83,WSW,248,4.0,6.0,45,0.00,CLR,,0.00,WeatherDisplay:10.37,2013-03-12 18:24:00,
2013-03-12 13:29:00,33.8,14.7,29.83,WNW,292,4.3,5.8,45,0.00,CLR,,0.00,WeatherDisplay:10.37,2013-03-12 18:29:00,
2013-03-12 13:34:00,35.1,15.8,29.83,West,270,3.8,4.6,45,0.00,CLR,,0.00,WeatherDisplay:10.37,2013-03-12 18:34:00,
2013-03-12 13:39:00,35.6,15.3,29.83,WSW,248,3.1,5.9,43,0.00,CLR,,0.00,WeatherDisplay:10.37,2013-03-12 18:39:00,
2013-03-12 13:44:00,35.1,14.8,29.83,WNW,292,4.0,5.8,43,0.00,CLR,,0.00,WeatherDisplay:10.37,2013-03-12 18:44:00,
2013-03-12 13:49:00,34.7,15.5,29.83,SSW,202,3.1,4.6,45,0.00,CLR,,0.00,WeatherDisplay:10.37,2013-03-12 18:49:00,
2013-03-12 13:54:00,33.4,14.8,29.83,NW,315,4.0,6.9,46,0.00,CLR,,0.00,WeatherDisplay:10.37,2013-03-12 18:54:00,
2013-03-12 13:59:00,31.1,14.1,29.83,NW,315,6.4,9.7,49,0.00,CLR,,0.00,WeatherDisplay:10.37,2013-03-12 18:59:00,
2013-03-12 14:04:00,30.9,15.3,29.83,West,270,5.4,8.1,52,0.00,CLR,,0.00,WeatherDisplay:10.37,2013-03-12 19:04:00,
2013-03-12 14:09:00,32.4,17.6,29.83,NW,315,3.3,5.8,54,0.00,CLR,,0.00,WeatherDisplay:10.37,2013-03-12 19:09:00,
2013-03-12 14:14:00,33.1,17.3,29.83,NW,315,3.3,7.6,52,0.00,CLR,,0.00,WeatherDisplay:10.37,2013-03-12 19:14:00,
2013-03-12 14:19:00,32.5,15.9,29.83,WNW,292,6.4,8.1,50,0.00,CLR,,0.00,WeatherDisplay:10.37,2013-03-12 19:19:00,
2013-03-12 14:24:00,34.0,17.3,29.83,WNW,292,4.5,6.0,50,0.00,CLR,,0.00,WeatherDisplay:10.37,2013-03-12 19:24:00,
2013-03-12 14:29:00,34.9,17.2,29.80,West,270,6.2,10.4,48,0.00,CLR,,0.00,WeatherDisplay:10.37,2013-03-12 19:29:00,
2013-03-12 14:34:00,35.6,17.8,29.80,NW,315,4.0,5.8,48,0.00,CLR,,0.00,WeatherDisplay:10.37,2013-03-12 19:34:00,
2013-03-12 14:39:00,35.4,17.7,29.80,NNW,338,5.6,8.1,48,0.00,CLR,,0.00,WeatherDisplay:10.37,2013-03-12 19:39:00,
2013-03-12 14:44:00,34.2,16.5,29.80,West,270,4.7,5.8,48,0.00,CLR,,0.00,WeatherDisplay:10.37,2013-03-12 19:44:00,
2013-03-12 14:49:00,36.7,18.3,29.80,West,270,3.6,14.7,47,0.00,CLR,,0.00,WeatherDisplay:10.37,2013-03-12 19:49:00,
2013-03-12 14:54:00,37.6,17.6,29.80,WSW,248,3.8,8.1,44,0.00,CLR,,0.00,WeatherDisplay:10.37,2013-03-12 19:54:00,
2013-03-12 14:59:00,34.0,14.8,29.80,WSW,248,6.2,12.7,45,0.00,CLR,,0.00,WeatherDisplay:10.37,2013-03-12 19:59:00,
2013-03-12 15:04:00,33.4,15.8,29.80,West,270,4.0,6.9,48,0.00,CLR,,0.00,WeatherDisplay:10.37,2013-03-12 20:04:00,
2013-03-12 15:09:00,33.1,15.5,29.80,WNW,292,4.9,8.1,48,0.00,CLR,,0.00,WeatherDisplay:10.37,2013-03-12 20:09:00,
2013-03-12 15:14:00,32.7,16.1,29.83,West,270,6.0,8.1,50,0.00,CLR,,0.00,WeatherDisplay:10.37,2013-03-12 20:14:00,
2013-03-12 15:19:00,32.7,17.0,29.83,North,0,4.3,5.8,52,0.00,CLR,,0.00,WeatherDisplay:10.37,2013-03-12 20:19:00,
2013-03-12 15:24:00,31.3,15.7,29.83,NW,315,6.2,7.8,52,0.00,CLR,,0.00,WeatherDisplay:10.37,2013-03-12 20:24:00,
2013-03-12 15:29:00,30.2,15.1,29.83,WNW,292,4.7,8.1,53,0.00,CLR,,0.00,WeatherDisplay:10.37,2013-03-12 20:29:00,
2013-03-12 15:34:00,30.4,15.3,29.83,NNW,338,4.0,7.6,53,0.00,CLR,,0.02,WeatherDisplay:10.37,2013-03-12 20:34:00,
2013-03-12 15:39:00,30.4,15.3,29.83,WNW,292,5.6,6.9,53,0.02,RA,,0.02,WeatherDisplay:10.37,2013-03-12 20:39:00,
2013-03-12 15:44:00,30.6,15.4,29.83,WNW,292,4.5,8.1,53,0.02,RA,,0.02,WeatherDisplay:10.37,2013-03-12 20:44:00,
2013-03-12 15:49:00,30.7,16.5,29.83,WNW,292,3.3,8.1,55,0.02,CLR,,0.02,WeatherDisplay:10.37,2013-03-12 20:49:00,
2013-03-12 15:54:00,30.0,16.2,29.83,NW,315,6.0,9.2,56,0.02,CLR,,0.02,WeatherDisplay:10.37,2013-03-12 20:54:00,
2013-03-12 15:59:00,30.6,16.7,29.83,NW,315,5.4,8.1,56,0.02,CLR,,0.02,WeatherDisplay:10.37,2013-03-12 20:59:00,
2013-03-12 16:04:00,30.6,16.7,29.83,WNW,292,3.1,5.9,56,0.02,CLR,,0.02,WeatherDisplay:10.37,2013-03-12 21:04:00,
2013-03-12 16:09:00,30.7,17.3,29.86,WNW,292,3.3,8.5,57,0.02,CLR,,0.02,WeatherDisplay:10.37,2013-03-12 21:09:00,
2013-03-12 16:14:00,30.9,16.2,29.86,NW,315,6.4,9.2,54,0.02,CLR,,0.02,WeatherDisplay:10.37,2013-03-12 21:14:00,
2013-03-12 16:19:00,32.5,17.3,29.86,NNW,338,5.6,8.1,53,0.02,CLR,,0.02,WeatherDisplay:10.37,2013-03-12 21:19:00,
2013-03-12 16:24:00,34.0,18.2,29.83,WSW,248,3.8,5.8,52,0.02,CLR,,0.02,WeatherDisplay:10.37,2013-03-12 21:24:00,
2013-03-12 16:29:00,33.1,17.3,29.83,West,270,5.4,8.1,52,0.02,CLR,,0.02,WeatherDisplay:10.37,2013-03-12 21:29:00,
2013-03-12 16:34:00,32.0,16.3,29.83,WNW,292,4.7,9.2,52,0.02,CLR,,0.02,WeatherDisplay:10.37,2013-03-12 21:34:00,
2013-03-12 16:39:00,31.8,16.6,29.86,WNW,292,4.7,6.2,53,0.00,CLR,,0.02,WeatherDisplay:10.37,2013-03-12 21:39:00,
2013-03-12 16:44:00,30.7,16.0,29.86,WNW,292,7.1,9.2,54,0.00,CLR,,0.02,WeatherDisplay:10.37,2013-03-12 21:44:00,
2013-03-12 16:49:00,32.0,18.1,29.86,WNW,292,5.9,9.2,56,0.00,CLR,,0.02,WeatherDisplay:10.37,2013-03-12 21:49:00,
2013-03-12 16:54:00,30.9,16.6,29.86,WNW,292,6.0,10.4,55,0.00,CLR,,0.02,WeatherDisplay:10.37,2013-03-12 21:54:00,
2013-03-12 16:59:00,30.7,16.9,29.86,WNW,292,3.8,7.1,56,0.00,CLR,,0.02,WeatherDisplay:10.37,2013-03-12 21:59:00,
2013-03-12 17:04:00,29.8,16.8,29.86,WNW,292,4.5,7.6,58,0.00,CLR,,0.02,WeatherDisplay:10.37,2013-03-12 22:04:00,
2013-03-12 17:09:00,31.5,19.2,29.86,WSW,248,4.0,4.6,60,0.00,CLR,,0.02,WeatherDisplay:10.37,2013-03-12 22:09:00,
2013-03-12 17:14:00,31.3,17.8,29.86,NW,315,4.0,6.2,57,0.00,CLR,,0.02,WeatherDisplay:10.37,2013-03-12 22:14:00,
2013-03-12 17:19:00,30.6,17.1,29.86,WNW,292,4.9,6.2,57,0.00,CLR,,0.02,WeatherDisplay:10.37,2013-03-12 22:19:00,
2013-03-12 17:25:00,30.2,16.8,29.86,West,270,4.5,5.8,57,0.00,CLR,,0.02,WeatherDisplay:10.37,2013-03-12 22:25:00,
2013-03-12 17:30:00,29.7,16.7,29.86,West,270,3.8,5.8,58,0.00,CLR,,0.02,WeatherDisplay:10.37,2013-03-12 22:30:00,
2013-03-12 17:35:00,29.3,17.1,29.86,West,270,4.9,10.4,60,0.00,CLR,,0.02,WeatherDisplay:10.37,2013-03-12 22:35:00,
2013-03-12 17:40:00,29.3,17.5,29.89,NW,315,2.6,3.5,61,0.00,CLR,,0.02,WeatherDisplay:10.37,2013-03-12 22:40:00,
2013-03-12 17:45:00,28.9,16.4,29.89,WNW,292,6.4,6.9,59,0.00,CLR,,0.02,WeatherDisplay:10.37,2013-03-12 22:45:00,
2013-03-12 17:50:00,28.6,17.2,29.89,WSW,248,4.7,5.8,62,0.00,CLR,,0.02,WeatherDisplay:10.37,2013-03-12 22:50:00,
2013-03-12 17:55:00,28.0,16.7,29.89,WNW,292,7.4,7.4,62,0.00,CLR,,0.02,WeatherDisplay:10.37,2013-03-12 22:55:00,
2013-03-12 18:00:00,28.0,17.1,29.89,SW,225,3.3,4.6,63,0.00,CLR,,0.02,WeatherDisplay:10.37,2013-03-12 23:00:00,
2013-03-12 18:05:00,28.0,17.4,29.89,NW,315,6.9,9.2,64,0.00,CLR,,0.02,WeatherDisplay:10.37,2013-03-12 23:05:00,
2013-03-12 18:10:00,28.2,18.0,29.89,WNW,292,3.1,4.6,65,0.00,CLR,,0.02,WeatherDisplay:10.37,2013-03-12 23:10:00,
2013-03-12 18:15:00,27.9,18.7,29.89,West,270,5.6,5.6,68,0.00,CLR,,0.02,WeatherDisplay:10.37,2013-03-12 23:15:00,
2013-03-12 18:20:00,27.5,18.7,29.89,NW,315,3.8,11.5,69,0.00,CLR,,0.02,WeatherDisplay:10.37,2013-03-12 23:20:00,
2013-03-12 18:25:00,27.1,18.3,29.86,NNW,338,6.9,10.4,69,0.00,CLR,,0.02,WeatherDisplay:10.37,2013-03-12 23:25:00,
2013-03-12 18:30:00,26.8,16.9,29.86,WNW,292,6.2,10.4,66,0.00,CLR,,0.02,WeatherDisplay:10.37,2013-03-12 23:30:00,
2013-03-12 18:35:00,26.6,15.7,29.86,NW,315,9.4,10.4,63,0.00,CLR,,0.02,WeatherDisplay:10.37,2013-03-12 23:35:00,
2013-03-12 18:40:00,26.4,15.5,29.86,NW,315,7.8,11.5,63,0.00,CLR,,0.02,WeatherDisplay:10.37,2013-03-12 23:40:00,
2013-03-12 18:45:00,26.1,15.2,29.86,North,0,5.6,11.5,63,0.00,CLR,,0.02,WeatherDisplay:10.37,2013-03-12 23:45:00,
2013-03-12 18:50:00,26.1,14.1,29.86,NW,315,7.8,9.2,60,0.00,CLR,,0.02,WeatherDisplay:10.37,2013-03-12 23:50:00,
2013-03-12 18:55:00,26.1,14.4,29.89,WNW,292,3.8,5.8,61,0.00,CLR,,0.02,WeatherDisplay:10.37,2013-03-12 23:55:00,
2013-03-12 19:00:00,26.1,14.4,29.89,WNW,292,4.7,8.1,61,0.00,CLR,,0.02,WeatherDisplay:10.37,2013-03-13 00:00:00,
2013-03-12 19:05:00,25.9,14.6,29.89,NW,315,4.5,6.2,62,0.00,CLR,,0.02,WeatherDisplay:10.37,2013-03-13 00:05:00,
2013-03-12 19:10:00,25.9,14.3,29.92,WNW,292,6.7,9.2,61,0.00,CLR,,0.02,WeatherDisplay:10.37,2013-03-13 00:10:00,
2013-03-12 19:15:00,25.7,14.1,29.92,NW,315,3.6,6.4,61,0.00,CLR,,0.02,WeatherDisplay:10.37,2013-03-13 00:15:00,
2013-03-12 19:20:00,25.5,12.0,29.92,WNW,292,6.4,9.8,56,0.00,CLR,,0.02,WeatherDisplay:10.37,2013-03-13 00:20:00,
2013-03-12 19:25:00,25.3,11.4,29.92,WNW,292,7.4,9.2,55,0.00,CLR,,0.02,WeatherDisplay:10.37,2013-03-13 00:25:00,
2013-03-12 19:30:00,25.3,11.0,29.92,WNW,292,6.0,6.9,54,0.00,CLR,,0.02,WeatherDisplay:10.37,2013-03-13 00:30:00,
2013-03-12 19:35:00,25.2,10.8,29.92,NW,315,9.2,15.0,54,0.00,CLR,,0.02,WeatherDisplay:10.37,2013-03-13 00:35:00,
2013-03-12 19:40:00,25.0,10.7,29.92,West,270,5.9,9.2,54,0.00,CLR,,0.02,WeatherDisplay:10.37,2013-03-13 00:40:00,
2013-03-12 19:45:00,25.0,10.2,29.92,NW,315,4.3,6.9,53,0.00,CLR,,0.02,WeatherDisplay:10.37,2013-03-13 00:45:00,
2013-03-12 19:50:00,25.0,10.7,29.92,WNW,292,2.9,4.9,54,0.00,CLR,,0.02,WeatherDisplay:10.37,2013-03-13 00:50:00,
2013-03-12 19:55:00,24.8,10.5,29.92,West,270,5.4,5.8,54,0.00,CLR,,0.02,WeatherDisplay:10.37,2013-03-13 00:55:00,
2013-03-12 20:00:00,24.6,10.3,29.92,WNW,292,4.5,6.9,54,0.00,CLR,,0.02,WeatherDisplay:10.37,2013-03-13 01:00:00,
2013-03-12 20:05:00,24.6,9.9,29.92,NW,315,6.0,10.7,53,0.00,CLR,,0.02,WeatherDisplay:10.37,2013-03-13 01:05:00,
2013-03-12 20:10:00,24.6,9.9,29.95,WNW,292,4.9,8.1,53,0.00,CLR,,0.02,WeatherDisplay:10.37,2013-03-13 01:10:00,
2013-03-12 20:15:00,24.6,9.9,29.95,WNW,292,6.0,9.2,53,0.00,CLR,,0.02,WeatherDisplay:10.37,2013-03-13 01:15:00,
2013-03-12 20:20:00,24.4,9.7,29.95,WNW,292,4.3,5.8,53,0.00,CLR,,0.02,WeatherDisplay:10.37,2013-03-13 01:20:00,
2013-03-12 20:25:00,24.4,9.7,29.95,WNW,292,5.6,9.2,53,0.00,CLR,,0.02,WeatherDisplay:10.37,2013-03-13 01:25:00,
2013-03-12 20:30:00,24.4,9.3,29.95,WNW,292,5.9,8.1,52,0.00,CLR,,0.02,WeatherDisplay:10.37,2013-03-13 01:30:00,
2013-03-12 20:35:00,24.4,9.7,29.95,NNE,22,5.6,8.1,53,0.00,CLR,,0.02,WeatherDisplay:10.37,2013-03-13 01:35:00,
2013-03-12 20:40:00,24.4,9.7,29.95,West,270,4.7,6.9,53,0.00,CLR,,0.02,WeatherDisplay:10.37,2013-03-13 01:40:00,
2013-03-12 20:45:00,24.4,9.7,29.95,WNW,292,3.3,5.4,53,0.00,CLR,,0.02,WeatherDisplay:10.37,2013-03-13 01:45:00,
2013-03-12 20:50:00,24.4,9.3,29.95,WNW,292,3.8,5.8,52,0.00,CLR,,0.02,WeatherDisplay:10.37,2013-03-13 01:50:00,
2013-03-12 20:55:00,24.4,9.7,29.95,NW,315,4.0,7.4,53,0.00,CLR,,0.02,WeatherDisplay:10.37,2013-03-13 01:55:00,
2013-03-12 21:00:00,24.3,9.6,29.95,WNW,292,4.0,6.9,53,0.00,CLR,,0.02,WeatherDisplay:10.37,2013-03-13 02:00:00,
2013-03-12 21:05:00,24.3,9.1,29.95,West,270,6.4,10.4,52,0.00,CLR,,0.02,WeatherDisplay:10.37,2013-03-13 02:05:00,
2013-03-12 21:10:00,24.3,9.6,29.95,WNW,292,3.8,5.8,53,0.00,CLR,,0.02,WeatherDisplay:10.37,2013-03-13 02:10:00,
2013-03-12 21:15:00,24.3,9.1,29.95,WNW,292,6.0,8.1,52,0.00,CLR,,0.02,WeatherDisplay:10.37,2013-03-13 02:15:00,
2013-03-12 21:20:00,24.3,9.1,29.95,WNW,292,5.4,6.9,52,0.00,CLR,,0.02,WeatherDisplay:10.37,2013-03-13 02:20:00,
2013-03-12 21:25:00,24.3,9.1,29.95,WNW,292,4.5,5.8,52,0.00,CLR,,0.02,WeatherDisplay:10.37,2013-03-13 02:25:00,
2013-03-12 21:30:00,24.1,9.0,29.95,WNW,292,5.4,9.2,52,0.00,CLR,,0.02,WeatherDisplay:10.37,2013-03-13 02:30:00,
2013-03-12 21:35:00,24.1,9.4,29.95,WNW,292,4.9,10.0,53,0.00,CLR,,0.02,WeatherDisplay:10.37,2013-03-13 02:35:00,
2013-03-12 21:40:00,24.1,9.4,29.95,WNW,292,4.9,5.6,53,0.00,CLR,,0.02,WeatherDisplay:10.37,2013-03-13 02:40:00,
2013-03-12 21:45:00,24.1,9.4,29.95,WNW,292,4.9,8.1,53,0.00,CLR,,0.02,WeatherDisplay:10.37,2013-03-13 02:45:00,
2013-03-12 21:50:00,24.1,9.4,29.95,NW,315,3.1,5.8,53,0.00,CLR,,0.02,WeatherDisplay:10.37,2013-03-13 02:50:00,
2013-03-12 21:55:00,24.3,9.6,29.95,WNW,292,6.7,8.1,53,0.00,CLR,,0.02,WeatherDisplay:10.37,2013-03-13 02:55:00,
2013-03-12 22:00:00,24.3,9.6,29.95,WNW,292,5.4,8.1,53,0.00,CLR,,0.02,WeatherDisplay:10.37,2013-03-13 03:00:00,
2013-03-12 22:05:00,24.3,9.6,29.95,NW,315,6.4,9.0,53,0.00,CLR,,0.02,WeatherDisplay:10.37,2013-03-13 03:05:00,
2013-03-12 22:10:00,24.3,9.6,29.98,WNW,292,3.8,5.8,53,0.00,CLR,,0.02,WeatherDisplay:10.37,2013-03-13 03:10:00,
2013-03-12 22:15:00,24.3,9.6,29.98,WNW,292,8.5,10.4,53,0.00,CLR,,0.02,WeatherDisplay:10.37,2013-03-13 03:15:00,
2013-03-12 22:20:00,24.3,9.6,29.98,NNW,338,5.4,5.8,53,0.00,CLR,,0.02,WeatherDisplay:10.37,2013-03-13 03:20:00,
2013-03-12 22:25:00,24.3,10.0,30.01,WNW,292,6.0,8.1,54,0.00,CLR,,0.02,WeatherDisplay:10.37,2013-03-13 03:25:00,
2013-03-12 22:30:00,24.3,10.0,30.01,NNW,338,6.9,8.1,54,0.00,CLR,,0.02,WeatherDisplay:10.37,2013-03-13 03:30:00,
2013-03-12 22:35:00,24.3,10.4,30.01,NNW,338,5.4,5.9,55,0.00,CLR,,0.02,WeatherDisplay:10.37,2013-03-13 03:35:00,
2013-03-12 22:40:00,24.1,11.4,30.01,NW,315,10.0,11.5,58,0.00,CLR,,0.02,WeatherDisplay:10.37,2013-03-13 03:40:00,
2013-03-12 22:45:00,23.5,13.5,30.01,NNE,22,7.8,9.2,65,0.00,CLR,,0.02,WeatherDisplay:10.37,2013-03-13 03:45:00,
2013-03-12 22:50:00,23.2,14.8,30.01,North,0,7.1,9.2,70,0.00,CLR,,0.02,WeatherDisplay:10.37,2013-03-13 03:50:00,
2013-03-12 22:55:00,23.0,15.9,30.01,NNW,338,7.1,9.2,74,0.00,CLR,,0.02,WeatherDisplay:10.37,2013-03-13 03:55:00,
2013-03-12 23:00:00,22.8,16.4,30.01,NNW,338,5.6,9.2,76,0.00,CLR,,0.02,WeatherDisplay:10.37,2013-03-13 04:00:00,
2013-03-12 23:05:00,22.8,16.7,30.01,North,0,4.7,10.2,77,0.00,CLR,,0.02,WeatherDisplay:10.37,2013-03-13 04:05:00,
2013-03-12 23:10:00,22.8,16.1,30.01,NW,315,5.6,8.7,75,0.00,CLR,,0.02,WeatherDisplay:10.37,2013-03-13 04:10:00,
2013-03-12 23:15:00,22.6,15.9,30.01,NNW,338,6.2,8.1,75,0.00,CLR,,0.02,WeatherDisplay:10.37,2013-03-13 04:15:00,
2013-03-12 23:20:00,22.6,16.2,30.01,North,0,6.0,9.2,76,0.00,CLR,,0.02,WeatherDisplay:10.37,2013-03-13 04:20:00,
2013-03-12 23:25:00,22.5,16.3,30.01,NNW,338,5.9,7.4,77,0.00,CLR,,0.02,WeatherDisplay:10.37,2013-03-13 04:25:00,
2013-03-12 23:30:00,22.3,16.2,30.01,NNW,338,6.7,9.2,77,0.00,CLR,,0.02,WeatherDisplay:10.37,2013-03-13 04:30:00,
2013-03-12 23:35:00,22.3,15.2,30.01,NNW,338,7.8,10.4,74,0.00,CLR,,0.02,WeatherDisplay:10.37,2013-03-13 04:35:00,
2013-03-12 23:40:00,22.1,15.1,30.01,NNW,338,7.6,10.4,74,0.00,CLR,,0.02,WeatherDisplay:10.37,2013-03-13 04:40:00,
2013-03-12 23:45:00,22.1,14.8,30.01,North,0,7.1,10.4,73,0.00,CLR,,0.02,WeatherDisplay:10.37,2013-03-13 04:45:00,
2013-03-12 23:50:00,21.9,14.3,30.01,NNW,338,7.4,10.4,72,0.00,CLR,,0.02,WeatherDisplay:10.37,2013-03-13 04:50:00,
2013-03-12 23:55:00,21.9,14.3,30.04,NW,315,6.4,9.2,72,0.00,CLR,,0.02,WeatherDisplay:10.37,2013-03-13 04:55:00,